TimeMST,TemperatureF,Dew PointF,Humidity,Sea Level PressureIn,VisibilityMPH,Wind Direction,Wind SpeedMPH,Gust SpeedMPH,PrecipitationIn,Events,Conditions,WindDirDegrees,DateUTC
12:53 AM,34.0,26.1,73,29.98,10.0,WSW,8.1,-,N/A,,Overcast,240,2014-02-23 07:53:00
1:53 AM,33.1,26.1,75,29.99,10.0,WSW,9.2,-,N/A,,Partly Cloudy,240,2014-02-23 08:53:00
2:53 AM,35.1,25.0,67,29.98,10.0,WSW,17.3,-,N/A,,Clear,240,2014-02-23 09:53:00
3:53 AM,36.0,25.0,64,29.96,10.0,SW,21.9,-,N/A,,Clear,230,2014-02-23 10:53:00
4:53 AM,36.0,25.0,64,29.97,10.0,SW,23.0,32.2,N/A,,Clear,220,2014-02-23 11:53:00
5:53 AM,37.0,25.0,62,29.99,10.0,SW,20.7,-,N/A,,Overcast,230,2014-02-23 12:53:00
6:53 AM,37.9,25.0,60,30.01,10.0,SW,20.7,-,N/A,,Mostly Cloudy,230,2014-02-23 13:53:00
7:53 AM,37.9,25.0,60,30.02,10.0,SW,19.6,-,N/A,,Mostly Cloudy,220,2014-02-23 14:53:00
8:53 AM,41.0,25.0,53,30.01,10.0,SW,21.9,-,N/A,,Scattered Clouds,220,2014-02-23 15:53:00
9:53 AM,43.0,25.0,49,30.04,10.0,SW,21.9,-,N/A,,Scattered Clouds,220,2014-02-23 16:53:00
10:53 AM,46.9,25.0,42,30.04,10.0,SW,23.0,32.2,N/A,,Mostly Cloudy,230,2014-02-23 17:53:00
11:53 AM,46.9,23.0,39,30.04,10.0,SW,23.0,-,N/A,,Mostly Cloudy,220,2014-02-23 18:53:00
12:53 PM,48.9,23.0,36,30.01,10.0,WSW,23.0,31.1,N/A,,Scattered Clouds,250,2014-02-23 19:53:00
1:53 PM,48.9,23.0,36,29.99,10.0,WSW,23.0,28.8,N/A,,Scattered Clouds,250,2014-02-23 20:53:00
2:53 PM,48.9,24.1,38,29.97,10.0,WSW,21.9,-,N/A,,Scattered Clouds,250,2014-02-23 21:53:00
3:53 PM,48.9,25.0,39,29.95,10.0,WSW,20.7,-,N/A,,Partly Cloudy,250,2014-02-23 22:53:00
4:53 PM,46.9,27.0,46,29.96,10.0,West,16.1,-,N/A,,Partly Cloudy,260,2014-02-23 23:53:00
5:53 PM,45.0,28.0,52,29.96,10.0,WSW,6.9,-,N/A,,Partly Cloudy,240,2014-02-24 00:53:00
6:53 PM,39.9,28.0,63,30.00,10.0,SW,8.1,-,N/A,,Clear,230,2014-02-24 01:53:00
7:53 PM,42.1,27.0,55,29.97,10.0,SSW,10.4,-,N/A,,Clear,200,2014-02-24 02:53:00
8:53 PM,42.1,27.0,55,29.96,10.0,SSW,11.5,-,N/A,,Clear,200,2014-02-24 03:53:00
9:53 PM,43.0,25.0,49,29.96,10.0,SSW,12.7,-,N/A,,Clear,210,2014-02-24 04:53:00
10:53 PM,42.1,25.0,51,29.94,10.0,SSW,9.2,-,N/A,,Clear,210,2014-02-24 05:53:00
11:53 PM,41.0,25.0,53,29.95,10.0,SSW,8.1,-,N/A,,Scattered Clouds,210,2014-02-24 06:53:00